COSMOS 2251 DEB, 35586

Orbit data source: Space-Track

COSMOS 2251 DEB, 35586 is space debris in LEO originally from a launch on Wed, 16 Jun 1993 UTC launched from the Plesetsk Missile And Space Complex (PKMTR). The debris from Iridium 33, an American commercial communications satellite, has been tracked extensively since its accidental collision with the defunct Russian satellite Cosmos 2251 in 2009. This event, occurring at high speed in low Earth orbit (LEO), generated thousands of pieces of space debris, significantly increasing the risk of further collisions. The Iridium 33 debris cloud has impacted space traffic management and orbital debris mitigation strategies, making it a subject of ongoing study in space situational awareness.

Loading next visibility...
Identifier
35586, 1993-036AMD
Orbit
LEO
Country
Flag of CISCIS
Related business
Manufacturer
Unknown
Mission
Spacecraft
Bus & Motor
Unknown
Mass
Unknown
Launch date (UTC)
1993-06-16 (32 years ago)
Launch vehicle
Unknown
Launch site
Plesetsk Missile And Space Complex (PKMTR)
Object type
Payload
Rocket body
Debris
Shape & HBR
Unknown shape, 0.1 m
Radar Cross Section
Small (<0.1 m²)

Expand to show TLE details & history
Last TLE update: 4 days ago

TLE from 4 days ago
0 COSMOS 2251 DEB
1 35586U 93036AMD 25300.00286399  .00001044  00000-0  96848-3 0  9992
2 35586  74.0242  17.3528 0405851 262.2265 281.2752 13.52001928597506
Epoch: 2025-10-27T00:04Z
TLE epoch observation values (Epoch: 2025-10-27T00:04:07.448Z)
Latitude
0.9562°
Longitude
160.43845°
Altitude
1,020.148 km
Speed
7.365 km/s
True Right ascension
13h 08m 19s
True Declination
0° 57' 02"
Sunlit
Object was in daylight at epoch
Visualization orbit readout
Latitude
Unknown
Longitude
Unknown
Altitude
Unknown
Speed
Unknown
Apparent Right ascension
Unknown
Apparent Declination
Unknown
Sunlit
N/A
Visualization observer readout
Local Sidereal Time
14:50:37
Azimuth
Unknown
Elevation
Unknown
Doppler factor
Unknown
Orbital elements
Apogee altitude
1,364.599 km
Perigee altitude
760.632 km
Semi-major axis
7,440.752 km
Eccentricity
0.04059
Inclination
74.0242°
RAAN
17.3528°
Arg. of periapsis
262.2265°
True anomaly
276.67353°
Mean anomaly
281.2752°
Eccentric anomaly
278.97834°
Mean motion
3.38157 °/min
Orbital period
106.46 mins
BSTAR
0.00096848

Documentation

Showing up to 5 results
|